Regional Weather Roundup
Issued by NWS

Home | Current Version | Previous Version | Graphics & Text | Print | Product List | Glossary On
Versions: 1 2 3 4 5 6 7 8 9 10 11 12 13 14 15 16 17 18 19 20 21 22 23 24 25 26 27
000
ASUS45 KBOU 251810
RWRCO

WEATHER ROUNDUP FOR COLORADO
NATIONAL WEATHER SERVICE DENVER/BOULDER CO
1200 PM MDT FRI MAY 25 2018

NOTE: "FAIR" INDICATES FEW OR NO CLOUDS BELOW 12000 FEET WITH NO
SIGNIFICANT WEATHER AND/OR OBSTRUCTIONS TO VISIBILITY.

COZ001>005-013-030-031-251900-
...NORTHWEST COLORADO...

CITY           SKY/WX    TMP DP  RH WIND       PRES   REMARKS
CRAIG          FAIR      78  35  21 VRB3      30.14F
HAYDEN         FAIR      74  32  21 CALM      30.18F
MEEKER         FAIR      79  27  14 E5        30.14F
RANGELY        FAIR      82  26  13 CALM      30.05F
RABBIT EARS PA FAIR      57  23  26 SW6       30.45S
STEAMBOAT SPGS FAIR      72  32  23 CALM      30.19F
WALDEN         FAIR      70  25  18 SW5       30.28F
$$

COZ006>008-011-251900-
...WEST CENTRAL VALLEYS...

CITY           SKY/WX    TMP DP  RH WIND       PRES   REMARKS
GRAND JUNCTION FAIR      86  27  11 SE15G21   30.03F
MONTROSE       FAIR      81  16   9 NW7       30.12F
EAGLE          FAIR      76  25  15 VRB3      30.20F
RIFLE          FAIR      80  30  16 N6        30.10F
DELTA          NOT AVBL
NUCLA          NOT AVBL
$$

COZ017>023-064>068-251900-
...SOUTHWEST COLORADO...

CITY           SKY/WX    TMP DP  RH WIND       PRES   REMARKS
DURANGO        FAIR      75  19  12 VRB5      30.24F
CORTEZ         FAIR      79  18  10 SW16G22   30.19F
PAGOSA SPRINGS NOT AVBL
TELLURIDE      FAIR      69  15  12 SE10G18   30.37F
WOLF CREEK PAS FAIR      54  16  22 S17G25    30.62S
$$

COZ009-010-012-014-032>034-037-058>063-251900-
...CENTRAL COLORADO...

CITY           SKY/WX    TMP DP  RH WIND       PRES   REMARKS
ASPEN          FAIR      74  18  12 VRB5      30.25F
BUENA VISTA    NOT AVBL
COPPER MTN     FAIR      54  14  20 W3        30.56S
BERTHOUD PASS  FAIR      48  37  66 W10G18    30.59R
COTTONWOOD PAS FAIR      73   5   7 E6        30.40F
GUNNISON       FAIR      72  20  14 S5        30.27F
GRANBY         FAIR      69  28  21 NW9       30.30F
KREMMLING      FAIR      77  30  18 CALM      30.25F
LEADVILLE      FAIR      64  11  12 MISG      30.40S
MONARCH PASS   FAIR      55  14  19 MISG      30.66F
SALIDA         NOT AVBL
SUNLIGHT       FAIR      59  21  23 S3        30.50S
WILKERSON PASS FAIR      57  12  17 CALM      30.55S
$$

COZ069>075-251900-
...SAN LUIS VALLEY/SANGRE DE CRISTO MOUNTAINS...

CITY           SKY/WX    TMP DP  RH WIND       PRES   REMARKS
ALAMOSA        FAIR      74  16  11 E7        30.27F
DEL NORTE      NOT AVBL
LA VETA PASS   FAIR      68  19  15 S17G26    30.56F
SAGUACHE       NOT AVBL
$$

COZ035-036-038>040-251900-
...NORTHERN COLORADO FRONT RANGE...

CITY           SKY/WX    TMP DP  RH WIND       PRES   REMARKS
DENVER INTL AP FAIR      83  32  16 SW6       30.09F
AURORA         NOT AVBL
FRONT RANGE AP MOSUNNY   84  27  12 CALM      30.11F
ERIE MUNI ARPT FAIR      83  34  17 E7        30.12F
BOULDER MUN AP FAIR      77  46  33 CALM      30.08F
CENTENNIAL     FAIR      82  30  15 N6        30.12F
BROOMFIELD     MOSUNNY   82  30  15 E3        30.11F
FORT COLLINS   FAIR      80  48  32 VRB6      30.07F
LONGMONT       NOT AVBL
$$

COZ041-046-047-076>085-087-088-251900-
...PIKES PEAK/PALMER DIVIDE AND SOUTHERN FOOTHILLS...

CITY           SKY/WX    TMP DP  RH WIND       PRES   REMARKS
COLO. SPRINGS  FAIR      81  30  15 SE7G17    30.15F
A. F. ACADEMY  FAIR      79  30  17 SE10      30.16F
SCHRIEVER AFB  NOT AVBL
CHEYENNE MTN   FAIR      78  30  17 E12       30.15F
ELLICOTT         N/A    N/A N/A N/A S8        30.15F
FALCON         NOT AVBL
FORT CARSON    FAIR      84  28  13 E10G21    30.11F
LIMON          FAIR      81  33  17 SW10      30.10F
MONUMENT HILL  FAIR      75  25  15 E3        30.22F
CANON CITY     SUNNY     88  28  11 SE6       30.08F
WALSENBURG     FAIR      86  27  11 NE3G16    30.14F
TRINIDAD       FAIR      82  36  19 CALM      30.14F
$$

COZ042>045-048>051-090-091-251900-
...NORTHEAST COLORADO...

CITY           SKY/WX    TMP DP  RH WIND       PRES   REMARKS
GREELEY ARPT   FAIR      82  45  27 SE5       30.06F
AKRON          FAIR      82  49  31 VRB5      30.06S
BURLINGTON     FAIR      86  44  23 VRB5      30.03F
WRAY           NOT AVBL
YUMA           FAIR      82  45  26 W7        30.02F
STERLING       FAIR      86  54  32 SW9       30.00F
HOLYOKE        FAIR      88  43  20 W8        29.99F
FORT MORGAN    NOT AVBL
$$

COZ086-089-092>099-251900-
...SOUTHEAST COLORADO...

CITY           SKY/WX    TMP DP  RH WIND       PRES   REMARKS
PUEBLO         FAIR      87  32  14 SW6       30.05F
LA JUNTA       FAIR      86  44  23 VRB3      30.04F
LAMAR          FAIR      89  50  26 N5        29.99F
SPRINGFIELD      N/A     86  46  24 E9G22     30.03S
$$




USA.gov is the U.S. government's official web portal to all federal, state and local government web resources and services.